Погода в Рыткучи

Россия / Чукотский автономный округ     68°53′48″N   170°42′55″E
темп.,
°C
ветер,
м/с
пор.,
м/с
влажн.,
%
обл.,
%
осадки,
мм/ч
давл.,
гПа
погр.,
м
18 мая, вт
вт1800:00−1юв6138796 0.0 1012165
03:00−2юв7128865 0.0 1012175
06:00−1юв814865 0.0 1012262
09:000юв814835 0.0 1011416
12:00+1юв813825 0.0 1011413
15:00+1юв813825 0.0 1011349
18:00+2юв8138142 0.0 1010340
21:000юв813815 0.0 1011223
19 мая, ср
ср1900:00−2юв7128350 0.0 1011158
03:00−4вюв6118677 0.0 1010126
06:00−4вюв611855 0.0 1010150
09:00−1юв6118340 0.0 1010402
12:00+1юв711828 0.0 1010397
15:00+1юв7118595 0.0 1009301
18:00+1юв7118396 0.0 1009270
21:00+1юв71184100 0.0 1009241
20 мая, чт
чт2000:00−1юв61186100 0.0 1010153
03:00−4юв6108833 0.0 1009108
06:00−4юв598974 0.0 1009121
09:00−1юв598648 0.0 1009286
12:00+1юв51090100 0.0 1009248
15:00+1юв61092100 0.0 1009242
18:00+2юв61190100 0.0 1008230
21:00+1юв61086100 0.0 1008182
21 мая, пт
пт2100:00−1юв588898 0.0 1008108
03:00−5юв478917 0.0 100868
06:00−5юв479124 0.0 100984
09:00−1ююв57875 0.0 1009218
12:000ююв36895 0.0 1010189
15:00+1ююв35925 0.0 101099
18:00+1ююв359344 0.0 101074
21:00−3юв33959 0.0 101126
22 мая, сб
сб2200:00−7юв339647 0.0 101218
03:00−9юв339867 0.0 101213
06:00−8ююв229772 0.0 101328
09:00−3ююв1293100 0.0 1013116
12:00−1юз1190100 0.0 1014140
15:00−1сз119093 0.0 1014119
18:00−1зсз1190100 0.0 1015103
21:00−3сз229275 0.0 101610